sat.trackr.live / text

‹ back to catalog

STARLINK-3614

NORAD 51771 · 2022-017D

PAYLOAD ACTIVE UNKNOWN

§ Identity

Operator
Country
US
Launch date
2022-02-25
Launch site
AFWTR
Launch vehicle
Mass (kg)
RCS (m²)

Purposes: comms

External: N2YO · Heavens-Above · Gunter

§ Orbital elements

Epoch: 2026-09-20T01:16:02.237088Z

Period
93.79 min
Inclination
53.1601°
Eccentricity
0.0001409
Mean motion
15.35394414 rev/d
Perigee alt
458.8 km
Apogee alt
460.7 km
Semi-major
6,837.9 km
B*
6.2358e-5
RAAN
173.5964°
Arg perigee
112.1961°
Mean anomaly
247.9192°
Rev number
25,212

§ Raw data

STARLINK-36141 51771U 22017D   26263.05280367  .00001795  00000+0  62358-4 0  99922 51771  53.1601 173.5964 0001409 112.1961 247.9192 15.35394414252124

JSON: /api/v1/satellites/51771 · /tle

For live sub-satellite position, see the globe view (requires WebGL).

§ Visibility from observer

Set your observer location to see the next 7 days of passes ≥ 10°. The values pass through the URL so the page stays shareable.

No JS? Fill the form by hand. The geolocation button needs JavaScript.